Regional Weather Roundup
Issued by NWS Wilmington, NC

Home | Current Version | Previous Version | Text Only | Print | Product List | Glossary On
Versions: 1 2 3 4 5 6 7 8 9 10 11 12 13 14 15 16 17 18 19 20 21 22 23 24 25 26 27 28 29 30 31 32 33 34 35 36 37 38 39 40 41 42 43 44 45 46 47 48 49 50
000
ASUS42 KILM 242013
RWRILM
RWRILM
REGIONAL HOURLY WEATHER ROUNDUP
NATIONAL WEATHER SERVICE WILMINGTON NC
400 PM EDT MON JUL 24 2017

NOTE: "FAIR" INDICATES FEW OR NO CLOUDS BELOW 12,000 FEET WITH NO
SIGNIFICANT WEATHER AND/OR OBSTRUCTIONS TO VISIBILITY.

...............WFO WILMINGTON COUNTY WARNING AREA...............

......COASTAL NC AND SC COUNTIES......

CITY           SKY/WX    TMP DP  RH WIND       PRES   REMARKS
WILMINGTON     CLOUDY    89  78  70 SW9       29.91F HX 103
N MYRTLE BEACH MOSUNNY   84  77  79 S15       29.93S HX  94
MYRTLE BEACH   PTSUNNY   86  77  74 S17       29.94F HX  97

......INLAND NC AND SC COUNTIES.......

CITY           SKY/WX    TMP DP  RH WIND       PRES   REMARKS
LUMBERTON      MOSUNNY   87  76  69 W12       29.91F HX  97
ELIZABETHTOWN  NOT AVBL
WHITEVILLE     CLOUDY    89  76  65 S7        29.92F HX  99
FLORENCE       CLOUDY    85  77  77 W6        29.93F HX  95
DARLINGTON     CLOUDY    84  78  82 SW5       29.93F HX  95
KINGSTREE      PTSUNNY   88  75  66 SW5       29.92F HX  97
HARTSVILLE     CLOUDY    81  75  83 SW3       29.93F
BENNETTSVILLE  FAIR      88  77  70 S5        29.92F HX 100
CONWAY         FAIR      88  75  66 SW5       29.93F HAZE    HX  97
GEORGETOWN     FAIR      88  77  70 SW9       29.95F HX 100
MARION         FAIR      86  75  70 W8          N/A  HX  95

....................REST OF NORTH CAROLINA......................

.........EASTERN NC.........

CITY           SKY/WX    TMP DP  RH WIND       PRES   REMARKS
CAPE HATTERAS  CLOUDY    82  75  79 SW16G24   29.92S
JACKSONVILLE   CLOUDY    89  77  67 SW10      29.91F HX 101
MOREHEAD CITY  SUNNY     86  79  79 SW20      29.91F HX  99
KENANSVILLE    CLOUDY    86  75  70 SW9       29.91F HX  95
NEW BERN       CLOUDY    88  75  65 SW9       29.91F HX  97
ELIZABETH CITY MOSUNNY   87  77  72 SW14      29.88R HX  99

.........CENTRAL NC.........

CITY           SKY/WX    TMP DP  RH WIND       PRES   REMARKS
RALEIGH DURHAM PTSUNNY   90  69  50 VRB7      29.91S HX  94
ROCKY MOUNT    SUNNY     89  73  59 W7        29.89F HX  97
ROANOKE RAPIDS NOT AVBL
FAYETTEVILLE   MOSUNNY   94  75  54 SW9       29.90F HX 105
HOFFMAN        CLOUDY    88  74  64 SW8       29.91F HX  97

.........WESTERN NC.........

CITY           SKY/WX    TMP DP  RH WIND       PRES   REMARKS
CHARLOTTE      MOSUNNY   88  71  57 SW5       29.94F HX  94
GREENSBORO     PTSUNNY   89  69  51 W9        29.93F HX  93
HICKORY        NOT AVBL
BOONE          NOT AVBL
ASHEVILLE      NOT AVBL

.....................REST OF SOUTH CAROLINA.....................

.........EASTERN SC.........

CITY           SKY/WX    TMP DP  RH WIND       PRES   REMARKS
CHARLESTON     PTSUNNY   85  75  72 SW13      29.96S HX  93
BEAUFORT MCAS  MOSUNNY   92  77  61 SW10G18   29.95F HX 105
HILTON HEAD    MOSUNNY   86  79  79 S12G23    29.97F HX  99

.........CENTRAL SC.........

CITY           SKY/WX    TMP DP  RH WIND       PRES   REMARKS
COLUMBIA       TSTM      77  71  82 NW9       29.95R
ORANGEBURG     CLOUDY    90  77  65 SE9       29.92F THUNDER HX 103
SUMTER SHAW    PTSUNNY   89  76  66 W5        29.90F HX  99

.........WESTERN SC.........

CITY           SKY/WX    TMP DP  RH WIND       PRES   REMARKS
GREENVILLE     NOT AVBL
ROCK HILL      CLOUDY    87  74  64 VRB6      29.95F HX  95
ANDERSON       SUNNY     89  68  49 W3        29.95F HX  93
CLEMSON        NOT AVBL
GREENWOOD      PTSUNNY   88  73  61 VRB3      29.95F HX  95


...................COASTAL AND OFFSHORE REPORTS..................

................LOCAL PIERS AND NC RESERVE................


STATION/POSITION TIME  SKY/WX   TEMP    WIND        PRES    VSBY
                                AIR SEA DIR/SP/G
                 (UTC)          (F)     (DEG/KT/KT) (MB)    (MI)
JOHNY MRCER PIER 1948            86 81  210/ 10/ 11 1012.3F
NC RESRV MASNBRO 1845            83     270/  3     1015.0
OCEAN CREST PIER NOT AVBL
SPRINGMAID  PIER 1948                               1012.9F


................COASTAL AND OFFSHORE BUOYS................


STATION/POSITION TIME  SKY/WX   TEMP    WIND        PRES    VSBY
                                AIR SEA DIR/SP/G
                 (UTC)          (F)     (DEG/KT/KT) (MB)    (MI)
DIMNDSHOAL 41025 1950            83 84  230/ 21/ 25 1013.0F
WVE H/P(F/S)=  7/ 7

CAPE LOOKOUT     2000            84     210/ 11/ 15 1012.8F
ONSLOW BAY 41036 NOT AVBL
ONSLOW BAY 41064 1908            81 82  240/ 17/ 21 1013.7F
ONSLOW BAY 41159 1943               82                N/A
WVE H/P(F/S)=  6/ 7

MASNBO INL 41110 1959               81                N/A
WVE H/P(F/S)=  3/ 7

WILM HARBR 41108 2000               80                N/A
WVE H/P(F/S)=  4/ 6

27SE WRITB 41037 1908            82 83  220/ 17/ 23 1013.4F
FRYING PAN 41013 1950            81 82  240/ 16/ 17 1014.1F
WVE H/P(F/S)=  5/ 7 SWL H/P/D(F/S/D)=  2/120/ 9

SUNST NRSH 41024 1908            82 82  220/ 12/ 14 1013.6F
CAPRS NRSH 41029 1908            80 84  230/ 14/ 19 1015.0F
EDISTO     41004 1950            82 83  220/ 17/ 21 1014.6F
WVE H/P(F/S)=  4/ 6 SWL H/P/D(F/S/D)=  2/110/ 9



..........OFFSHORE BUOYS BEYOND 100 NM OFFSHORE...........
.....IN A TRIANGLE---HAT TO BERMUDA TO BAHAMAS TO HAT.....


STATION/POSITION TIME  SKY/WX   TEMP    WIND        PRES    VSBY
                                AIR SEA DIR/SP/G
                 (UTC)          (F)     (DEG/KT/KT) (MB)    (MI)
150E HAT   41001 2000            83 81  220/ 19/ 25 1015.6
W BERMUDA  41048 2000            83 84  220/ 12/ 14 1021.5
ATLANTIC S 41049 1950            83 85   90/  8/ 10 1024.1F
WVE H/P(F/S)=  3/10 SWL H/P/D(F/S/D)=  3/110/10

E BAHAMAS  41046 2000            84 84  100/  8/  8 1021.0
NE BAHAMAS 41047 2000            85 85  180/ 10/ 12 1021.3
120E CANVRL41010 1950            84 84  170/ 10/ 12 1018.1F
WVE H/P(F/S)=  3/ 9 SWL H/P/D(F/S/D)=  2/110/ 9


END



USA.gov is the U.S. government's official web portal to all federal, state and local government web resources and services.